DW9615 Weather Reports


Display with metric or nautical units.
time (UTC)temp
F
wind
direction
speed
MPH
gust
MPH
rain 1hr
in
rain 24hr
in
rain mn
in
humidity
%
barometer
mb
20260509200049 62 165 0.0 0.0 0.00 0.00 0.00 36 1018.2
20260509194540 62 165 0.0 0.0 0.00 0.00 0.00 42 1018.0
20260509193039 63 165 0.0 0.0 0.00 0.00 0.00 50 1017.7
20260509191538 63 165 0.0 0.0 0.00 0.00 0.00 55 1017.6
20260509190034 64 165 0.0 0.0 0.00 0.00 0.00 58 1017.5
20260509184539 64 181 0.0 0.0 0.00 0.00 0.00 63 1017.5
20260509183032 65 191 0.0 0.0 0.00 0.00 0.00 65 1017.5
20260509181524 65 170 0.0 0.0 0.00 0.00 0.00 66 1017.5
20260509180024 65 170 0.0 0.0 0.00 0.00 0.00 64 1017.3
20260509174522 65 155 0.0 0.0 0.00 0.00 0.00 65 1017.3
20260509173026 66 159 0.0 0.0 0.00 0.00 0.00 70 1017.3
20260509171528 66 170 0.0 0.0 0.00 0.00 0.00 70 1017.3
20260509170018 66 170 0.0 0.0 0.00 0.00 0.00 71 1017.4
20260509164516 66 165 0.0 0.0 0.00 0.00 0.00 73 1017.4
20260509163024 66 165 0.0 1.0 0.00 0.00 0.00 69 1017.3
20260509161518 65 165 0.0 0.0 0.00 0.00 0.00 68 1017.4
20260509160012 65 170 0.0 0.0 0.00 0.00 0.00 71 1017.6
20260509154510 65 161 0.0 0.0 0.00 0.00 0.00 70 1017.6
20260509153016 66 122 0.0 0.0 0.00 0.00 0.00 73 1017.8
20260509151505 66 139 0.0 0.0 0.00 0.00 0.00 74 1017.8
20260509150003 66 157 0.0 0.0 0.00 0.00 0.00 75 1017.8
20260509144604 66 145 0.0 0.0 0.00 0.00 0.00 76 1018.1
20260509143106 66 143 0.0 0.0 0.00 0.00 0.00 77 1018.2
20260509141557 67 153 0.0 0.0 0.00 0.00 0.00 77 1018.2
20260509140104 67 141 0.0 0.0 0.00 0.00 0.00 78 1018.2
20260509134555 67 153 0.0 0.0 0.00 0.00 0.00 78 1018.3
20260509133101 68 145 0.0 0.0 0.00 0.00 0.00 78 1018.4
20260509131554 68 114 0.0 1.0 0.00 0.00 0.00 78 1018.3
20260509130056 69 139 0.0 2.0 0.00 0.00 0.00 77 1018.4
20260509124558 69 181 0.0 4.0 0.00 0.00 0.00 77 1018.3
20260509123102 69 155 0.0 1.0 0.00 0.00 0.00 77 1018.6
20260509121559 69 165 0.0 3.0 0.00 0.00 0.00 76 1018.6
20260509120051 69 134 0.0 4.0 0.00 0.00 0.00 76 1018.6
20260509114601 69 142 0.0 0.0 0.00 0.00 0.00 75 1018.6
20260509113050 70 158 0.0 9.0 0.00 0.00 0.00 74 1018.6
20260509111549 70 140 0.0 5.0 0.00 0.00 0.00 71 1018.6
20260509110049 71 165 0.0 6.0 0.00 0.00 0.00 69 1018.5
20260509104548 72 159 0.0 9.0 0.00 0.00 0.00 66 1018.6
20260509103047 72 156 0.0 4.0 0.00 0.00 0.00 64 1018.4
20260509101547 72 129 0.0 9.0 0.00 0.00 0.00 63 1018.3
20260509100046 72 131 0.0 5.0 0.00 0.00 0.00 63 1018.3
20260509094549 73 108 0.0 5.0 0.00 0.00 0.00 62 1018.2
20260509093045 73 134 0.0 4.0 0.00 0.00 0.00 62 1018.0
20260509091550 72 138 0.0 4.0 0.00 0.00 0.00 63 1017.8
20260509090058 72 150 0.0 3.0 0.00 0.00 0.00 66 1017.6
20260509084547 71 139 0.0 1.0 0.00 0.00 0.00 68 1017.4
20260509083050 71 84 0.0 0.0 0.00 0.00 0.00 67 1017.3
20260509081542 72 103 0.0 0.0 0.00 0.00 0.00 67 1017.1
20260509080056 73 103 0.0 0.0 0.00 0.00 0.00 65 1017.1
20260509074541 74 140 0.0 0.0 0.00 0.00 0.00 64 1016.8
20260509073039 74 81 0.0 8.0 0.00 0.00 0.00 62 1016.7
20260509071539 75 64 1.0 10.0 0.00 0.00 0.00 61 1016.4
20260509070043 76 69 2.0 10.0 0.00 0.00 0.00 61 1016.2
20260509064538 76 92 2.0 15.0 0.00 0.00 0.00 59 1016.1
20260509063036 77 77 2.0 11.0 0.00 0.00 0.00 57 1016.1
20260509061536 78 75 1.0 10.0 0.00 0.00 0.00 56 1016.0
20260509060035 78 89 4.0 11.0 0.00 0.00 0.00 54 1015.8
20260509054536 79 19 0.0 10.0 0.00 0.00 0.00 54 1015.6
20260509053042 79 78 2.0 12.0 0.00 0.00 0.00 51 1015.5
20260509051535 81 29 2.0 12.0 0.00 0.00 0.00 49 1015.4
20260509050049 83 81 1.0 8.0 0.00 0.00 0.00 42 1015.3
20260509044535 83 108 0.0 3.0 0.00 0.00 0.00 40 1015.3
20260509043040 82 144 2.0 8.0 0.00 0.00 0.00 39 1015.2
20260509041529 83 153 0.0 4.0 0.00 0.00 0.00 38 1015.2
20260509040027 82 42 2.0 9.0 0.00 0.00 0.00 37 1015.2
20260509034525 82 73 0.0 4.0 0.00 0.00 0.00 36 1015.4
20260509033025 82 23 1.0 8.0 0.00 0.00 0.00 35 1015.7
20260509031518 82 119 1.0 7.0 0.00 0.00 0.00 34 1016.0
20260509030021 82 133 0.0 6.0 0.00 0.00 0.00 35 1016.2
20260509024515 81 51 2.0 9.0 0.00 0.00 0.00 33 1016.4
20260509023014 81 175 1.0 10.0 0.00 0.00 0.00 33 1016.5
20260509021611 81 156 1.0 11.0 0.00 0.00 0.00 32 1016.6
20260509020010 80 131 1.0 6.0 0.00 0.00 0.00 33 1016.8
20260509014508 80 158 0.0 4.0 0.00 0.00 0.00 34 1017.1
20260509013006 79 77 0.0 6.0 0.00 0.00 0.00 33 1017.4
20260509011507 79 156 4.0 9.0 0.00 0.00 0.00 30 1017.7
20260509010004 78 149 1.0 8.0 0.00 0.00 0.00 30 1017.8
20260509004603 78 98 2.0 10.0 0.00 0.00 0.00 31 1018.2
20260509003055 76 175 1.0 10.0 0.00 0.00 0.00 32 1018.4
20260509001554 75 133 0.0 4.0 0.00 0.00 0.00 36 1018.5
20260509000052 75 160 1.0 8.0 0.00 0.00 0.00 34 1018.7
20260508234548 74 154 0.0 11.0 0.00 0.00 0.00 36 1018.8
20260508233048 73 99 1.0 6.0 0.00 0.00 0.00 35 1018.7
20260508231545 71 190 0.0 3.0 0.00 0.00 0.00 42 1018.6
20260508230037 68 165 0.0 1.0 0.00 0.00 0.00 48 1018.6
20260508224559 66 165 0.0 4.0 0.00 0.00 0.00 46 1018.6
20260508223035 66 187 0.0 6.0 0.00 0.00 0.00 45 1018.5
20260508221541 66 170 1.0 8.0 0.00 0.00 0.00 44 1018.1
20260508220034 65 180 1.0 9.0 0.00 0.00 0.00 45 1018.0
20260508214538 64 158 2.0 8.0 0.00 0.00 0.00 45 1018.0
20260508213034 64 170 0.0 4.0 0.00 0.00 0.00 49 1018.1
20260508211527 64 198 0.0 0.0 0.00 0.00 0.00 52 1017.9
20260508210027 64 175 0.0 3.0 0.00 0.00 0.00 53 1017.9
20260508204524 64 165 0.0 0.0 0.00 0.00 0.00 52 1017.4
20260508203020 64 175 0.0 0.0 0.00 0.00 0.00 53 1017.2
20260508201518 64 179 0.0 0.0 0.00 0.00 0.00 54 1017.1